Regional Weather Roundup
Issued by NWS

Home | Current Version | Previous Version | Graphics & Text | Print | Product List | Glossary On
Versions: 1 2 3 4 5 6 7 8 9 10 11 12 13 14 15 16 17 18 19 20 21 22 23 24 25 26 27 28 29 30 31 32 33 34 35 36 37 38 39 40 41 42 43 44 45 46 47 48 49 50
000
ASUS43 KLOT 050812
RWRIL

ILLINOIS REGIONAL WEATHER ROUNDUP
NATIONAL WEATHER SERVICE CHICAGO/ROMEOVILLE IL
200 AM CST MON DEC 05 2016

NOTE: "FAIR" INDICATES FEW OR NO CLOUDS BELOW 12,000 FEET WITH NO
SIGNIFICANT WEATHER AND/OR OBSTRUCTIONS TO VISIBILITY.

* THESE STATIONS ARE NOT UNDER NWS QUALITY CONTROL. THEY ALSO MAY NOT
  REPORT WEATHER SUCH AS PRECIPITATION OR FOG.

ILZ001-002-007-009-015-016-024-050900-
NORTHWEST ILLINOIS

CITY           SKY/WX    TMP DP  RH WIND       PRES   REMARKS
MOLINE         CLOUDY    35  31  85 SW9       29.98R WCI  28
STERLING*      CLOUDY    34  32  92 W12       29.98R WCI  25
SAVANNA*       CLOUDY    33  32  94 SW6       29.96S FOG     WCI  28
$$

ILZ003-004-008-010-011-017-018-050900-
NORTH CENTRAL ILLINOIS

CITY           SKY/WX    TMP DP  RH WIND       PRES   REMARKS
ROCKFORD       CLOUDY    33  30  88 W10       29.97R WCI  25
FREEPORT*      CLOUDY    32  30  94 W12       29.96S WCI  23
ROCHELLE*      CLOUDY    32  31  95 W12       29.96F WCI  23
DE KALB*       CLOUDY    32  31  95 W8        29.97R WCI  25
$$

ILZ005-006-012>014-019>023-050900-
NORTHEAST ILLINOIS

CITY           SKY/WX    TMP DP  RH WIND       PRES   REMARKS
CHICAGO-OHARE  CLOUDY    33  30  88 W12       29.95S WCI  24
CHICAGO-MIDWAY CLOUDY    34  30  85 W12       29.97R WCI  25
AURORA         CLOUDY    34  31  88 W15       29.98R WCI  24
LANSING*       CLOUDY    33  32  98 W6        29.98R WCI  27
JOLIET*        CLOUDY    34  33  93 W6        30.01R WCI  29
WAUKEGAN       CLOUDY    33  31  92 VRB6      29.93R WCI  28
DUPAGE AIRPORT CLOUDY    33  29  85 W12       29.96R WCI  24
KANKAKEE*      CLOUDY    33  32  97 CALM      30.02R
WHEELING       CLOUDY    33  30  88 VRB5      29.96R WCI  29
MORRIS*        CLOUDY    33  31  92 W7        29.99R WCI  27
ROMEOVILLE*    CLOUDY    33  33 100 W6        29.99R WCI  27
NORTHERLY ISL    N/A     34  31  89 W8          N/A  WCI  27
$$

LMZ740>746-050900-
SOUTHERN LAKE MICHIGAN

STATION/POSITION SKY/WX   TEMP    WIND        PRES    VSBY  WAVE
                          AIR SEA DIR/SP/G                  HT/PER
                          (F)     (DEG/KT/KT) (MB)    (MI)  (FT/S)
HARRISON CRIB              35     270/ 18/ 21   N/A
BURNHAM HARBOR             34     250/ 10/ 15   N/A
CALUMET HARBOR             33     240/  7/ 12 1014.2R
BURNS HARBOR               35     260/ 18/ 22 1014.9S
$$

ILZ025>027-034>036-040-047-049-050-058-095>099-050900-
WEST-CENTRAL ILLINOIS

CITY           SKY/WX    TMP DP  RH WIND       PRES   REMARKS
QUINCY         FOG       33  33 100 W7        30.00S VSB 3/4 WCI  27
GALESBURG*     CLOUDY    33  32  97 SW5       30.00R WCI  28
MACOMB*        CLOUDY    34  33  97 SW6       30.03R WCI  29
JACKSONVILLE*  CLOUDY    34  33  96 CALM      30.02S FOG
PITTSFIELD*    FOG       31  30  99 S3        30.02S VSB 1
$$

ILZ028>032-037-038-041>044-048-051>054-059>061-050900-
CENTRAL ILLINOIS

CITY           SKY/WX    TMP DP  RH WIND       PRES   REMARKS
PONTIAC        CLOUDY    34  34 100 W13       30.03R WCI  25
BLOOMINGTON    CLOUDY    32  31  96 W12       30.02R WCI  23
DECATUR        CLOUDY    33  31  92 W8        30.05R WCI  26
PEORIA         CLOUDY    33  32  96 W7        30.03R WCI  27
LACON*         CLOUDY    33  32  96 W6        30.02R WCI  27
LINCOLN*       CLOUDY    34  33  96 CALM      30.04R
SPRINGFIELD    CLOUDY    34  32  92 CALM      30.03F
TAYLORVILLE    CLOUDY    33  32  95 W3        30.05S
$$

ILZ033-039-045-046-055>057-062-063-050900-
EAST-CENTRAL ILLINOIS

CITY           SKY/WX    TMP DP  RH WIND       PRES   REMARKS
CHAMPAIGN      CLOUDY    33  31  92 W13       30.04R WCI  24
RANTOUL*       CLOUDY    34  33  95 W9        30.04R WCI  27
MATTOON        CLOUDY    35  31  85 W5        30.05R WCI  31
PARIS*         CLOUDY    34  32  92 W9        30.06R WCI  27
$$

ILZ079-100>102-050900-
SOUTHWEST ILLINOIS

CITY           SKY/WX    TMP DP  RH WIND       PRES   REMARKS
ALTON          CLEAR     31  31  99 CALM      30.05S FOG
BELLEVILLE     CLOUDY    36  36  99 S2        30.05S
CAHOKIA*       PTCLDY    34  31  88 S5        30.06R WCI  30
SPARTA*        CLOUDY    37  33  88 CALM      30.07F
$$

ILZ064>066-069>071-074>076-080>082-084>086-088>090-092>094-050900-
SOUTH-CENTRAL ILLINOIS

CITY           SKY/WX    TMP DP  RH WIND       PRES   REMARKS
CARBONDALE     CLOUDY    39  35  86 N3        30.08S
CAIRO*         CLOUDY    41  37  87 N5        30.09S
EFFINGHAM*     CLOUDY    35  34  95 W8        30.08S WCI  29
MARION         CLOUDY    41  39  93 CALM      30.09S
CENTRALIA*     CLOUDY    37  35  90 CALM      30.07S
SALEM*         CLOUDY    38  34  85 CALM      30.08S
METROPOLIS*    CLOUDY    41  36  81 CALM      30.10R
$$

ILZ067-068-072-073-078-083-087-091-050900-
SOUTHEAST ILLINOIS

CITY           SKY/WX    TMP DP  RH WIND       PRES   REMARKS
LAWRENCEVILLE  CLOUDY    37  32  82 W5        30.09R WCI  33
FLORA*         CLOUDY    37  34  87 NW3       30.09R
FAIRFIELD*     CLOUDY    37  33  86 CALM      30.08S
HARRISBURG*    CLOUDY    39  36  86 N5        30.09S
ROBINSON*      CLOUDY    35  32  89 W9        30.09R WCI  28
CARMI*         CLOUDY    37  35  90 N5        30.09R WCI  34
$$

ABBREVIATIONS USED IN REMARKS
   TC - TEMPERATURE IN CELSIUS
  WCI - WIND CHILL INDEX
   HX - HEAT INDEX
  VSB - VISIBILITY
$$





USA.gov is the U.S. government's official web portal to all federal, state and local government web resources and services.